Regional Weather Roundup
Issued by NWS

Home | Current Version | Previous Version | Graphics & Text | Print | Product List | Glossary On
Versions: 1 2 3 4 5 6 7 8 9 10 11 12 13 14 15 16 17 18 19 20 21 22 23 24 25 26 27 28 29 30 31 32 33 34 35 36 37 38 39 40 41 42 43 44 45 46 47
000
ASUS45 KTFX 281910
RWRMT
MONTANA REGIONAL WEATHER ROUNDUP
NATIONAL WEATHER SERVICE GREAT FALLS MT
100 PM MDT TUE JUL 28 2015

NOTE: "FAIR" INDICATES FEW OR NO CLOUDS BELOW 12000 FEET WITH NO
SIGNIFICANT WEATHER AND/OR OBSTRUCTIONS TO VISIBILITY.

MTZ001>007-043-282000-
WEST OF THE DIVIDE

CITY           SKY/WX    TMP DP  RH WIND       PRES   REMARKS
KALISPELL      PTCLDY    69  44  40 SE14G21   30.17F
MISSOULA       SUNNY     66  45  46 CALM      30.24F
BUTTE          CLOUDY    58  34  40 NW17G25   30.30S
MULLAN PASS    MOSUNNY   54  38  54 NW9       30.32R
DEER LODGE       N/A     63  37  39 W9        30.29F
EUREKA           N/A     72  43  35 S7        30.16F
HAMILTON         N/A     66  36  32 NW6       30.25S
LIBBY            N/A     70  41  35 NE3       30.18F
PLAINS           N/A     73  44  35 MISG      30.19F
RONAN            N/A     68  43  40 N7        30.24F
$$

MTZ008-052>055-282000-
SOUTHWEST MONTANA

CITY           SKY/WX    TMP DP  RH WIND       PRES   REMARKS
BOZEMAN        PTSUNNY   62  37  39 W10G17    30.25S
DILLON         PTSUNNY   60  38  43 SW6       30.30S
W YELLOWSTONE  PTSUNNY   52  36  54 W10G16    30.36R
TWIN BRIDGES     N/A     59  39  47 E6        30.25F
$$

MTZ009-010-012-014-046-048-049-054-282000-
EAST SLOPES AND CENTRAL MONTANA

CITY           SKY/WX    TMP DP  RH WIND       PRES   REMARKS
CUT BANK       CLOUDY    69  35  28 NW14G21   30.10R
GREAT FALLS    MOSUNNY   72  39  30 W22G29    30.11S
MALMSTROM AFB  MOSUNNY   69  39  34 W16G23    30.11S
HELENA         PTSUNNY   69  41  36 W17G24    30.20F
$$

MTZ011-013-016-021-045-047-050-051-282000-
NORTH CENTRAL MONTANA

CITY           SKY/WX    TMP DP  RH WIND       PRES   REMARKS
HAVRE          PTSUNNY   70  46  42 NW26G39   29.98S
LEWISTOWN      CLOUDY    65  39  38 NW23G33   30.11S
CHINOOK          N/A     66  46  48 W24G32    29.95R
FORT BENTON      N/A     72  36  26 W20G28    30.07R
$$

MTZ017>020-022>027-061-062-282000-
NORTHEAST MONTANA

CITY           SKY/WX    TMP DP  RH WIND       PRES   REMARKS
GLASGOW        LGT RAIN  57  52  83 W29G47    29.79R
JORDAN           N/A     66  50  56 W26G41    29.94R
SIDNEY         CLOUDY    61  52  72 W31G39    29.70R
WOLF POINT     LGT RAIN  61  53  75 W26G46    29.72R
PLENTYWOOD       N/A     55  54  94 W38G52    29.46R VSB 1
POPLAR           N/A     59  55  88 W28G41    29.69
$$

MTZ028>42-056>058-282000-
SOUTHCENTRAL AND SOUTHEAST MONTANA

CITY           SKY/WX    TMP DP  RH WIND       PRES   REMARKS
BILLINGS       PTSUNNY   68  39  34 W23G32    30.14S
LIVINGSTON     CLOUDY    62  38  40 W23G31    30.22S
MILES CITY     CLOUDY    65  47  52 W29G45    29.96R
FORSYTH          N/A     66  45  45 W30G38    30.01S
LAUREL           N/A     69  34  27 W22       30.13S
ROUNDUP          N/A     66  37  34 W22       30.01S
$$

REGIONAL REPORTS...DAKOTAS

CITY           SKY/WX    TMP DP  RH WIND       PRES   REMARKS
WILLISTON      LGT RAIN  61  55  81 W37G56    29.55R
MINOT          LGT RAIN  68  52  56 SW24G43   29.51S
DICKINSON      PTSUNNY   64  48  56 W39G52    29.76R
BEACH          CLOUDY    59  50  72 W41G52    29.81R
CROSBY         CLOUDY    57  57 100 W36G46    29.36S FOG
BISMARCK       CLOUDY    73  50  44 W32G45    29.73S
GRAND FORKS    MOSUNNY   78  59  51 SW22G31   29.61S
FARGO          MOSUNNY   79  57  46 SW20G30   29.70S
BUFFALO SD       N/A     66  43  43 W45G61    29.89R
RAPID CITY     SUNNY     75  42  30 W21G30    30.02S
$$

REGIONAL REPORTS...WYOMING/IDAHO/WASHINGTON

CITY           SKY/WX    TMP DP  RH WIND       PRES   REMARKS
GILLETTE       SUNNY     69  36  29 NW20G30   30.11R
SHERIDAN       CLOUDY    66  37  34 NW24G33   30.12R
BUFFALO WY     MOSUNNY   68  37  32 N21G29    30.16S
CODY           SUNNY     63  30  29 W16G30    30.22R
YELLOWSTONE LA   N/A     47  31  53 NW5       30.40R
IDAHO FALLS    MOSUNNY   64  34  32 NW7       30.33S
SALMON         CLOUDY    55  43  62 CALM      30.33S
BOISE          SUNNY     72  36  26 W5        30.25F
SPOKANE        MOSUNNY   71  40  32 S5        30.23S
$$

REGIONAL REPORTS...ALBERTA

CITY           SKY/WX    TMP DP  RH WIND       PRES   REMARKS
EDMONTON       MOSUNNY   70  46  43 W9G21     29.92F
CALGARY        MOSUNNY   70  39  32 N3        30.04S
LETHBRIDGE     MOSUNNY   72  36  26 NW20G28   30.04F
MEDICINE HAT   CLOUDY    73  41  31 NW25G33   29.94S
WATERTON GATE    N/A     66  41  39 SW17G25     N/A
CARDSTON         N/A     68  37  32 W10         N/A
MILK RIVER       N/A     70  39  32 NW18G25     N/A
ONEFOUR          N/A     68  43  40 NW29G36     N/A
$$

REGIONAL REPORTS...SASKATCHEWAN

CITY           SKY/WX    TMP DP  RH WIND       PRES   REMARKS
SWIFT CURRENT  LGT RAIN  55  54  94 NW16G25   29.76R
REGINA         LGT RAIN  63  61  94 N9        29.29R
SASKATOON      LGT RAIN  59  55  88 N20G26    29.67R
CYPRESS HILLS    N/A     59  39  47 NW14G28     N/A
VAL MARIE        N/A     55  52  88 NW20G28     N/A
ROCKGLEN         N/A     54  50  87 W30G48      N/A
ASSINIBOIA       N/A     72  48  43 NW17G25     N/A
$$


USA.gov is the U.S. government's official web portal to all federal, state and local government web resources and services.